Other Public Products
Issued by NWS Charleston, SC

Current Version | Previous Version | Graphics & Text | Print | Product List | Glossary On
Versions: 1 2 3 4 5 6 7 8 9 10 11 12 13 14 15 16 17 18 19 20 21 22 23 24 25 26 27 28 29 30 31 32 33 34 35 36 37 38 39 40 41 42 43 44 45 46 47 48 49 50
000 FPUS82 KCHS 262027 OPUCHS TEST...KCHS/KSAV Gateway Observations...TEST National Weather Service Charleston SC 400 PM EDT FRI MAY 26 2017 NOTE: "fair" indicates few or no clouds below 12,000 feet with no significant weather and/or obstructions to visibility. SCZ050-WAZ558-NCZ071-TXZ119-213-PAZ071-DCZ001-FLZ074-172-MI076- NYZ176-178-MAZ016-IL014-TNZ027-NJZ106-GAZ044-MD014-262100- ...Gateway Observations for Charleston International... CITY SKY/WX TMP DP RH WIND PRES REMARKS Chas Airport MOSUNNY 83 53 35 W8 29.96F Seattle MOSUNNY 74 47 38 N10 29.97F Charlotte MOSUNNY 81 54 39 SW9 29.95F Dallas DFW PTSUNNY 94 74 52 S21 29.75S HX 104 Dallas Love PTSUNNY 93 72 50 S15G21 29.76S HX 101 Philladelphia PTSUNNY 75 54 47 W17G24 29.69R Wash National PTSUNNY 75 55 49 NW16G25 29.77S Baltimore PTSUNNY 74 58 57 W17G31 29.75R Miami PTSUNNY 88 76 67 SE8 30.01F HX 99 Detroit PTSUNNY 69 53 56 NW8 29.85F Newark PTSUNNY 76 56 49 NW12G18 29.62R Laguardia PTSUNNY 74 53 48 NW17 29.61R J F K PTSUNNY 76 56 49 NW13 29.62S Boston Logan LGT RAIN 58 52 80 W12G21 29.58R Ft. Lauderdale MOSUNNY 86 73 65 E12 30.01F HX 93 Chicago O`Hare CLOUDY 69 53 56 E12 29.81F Chicago Midway CLOUDY 70 54 56 E12 29.82F Houston Bush PTSUNNY 89 73 59 S16G22 29.88F HX 97 Houston Hobby PTSUNNY 86 74 67 S15 29.88F HX 94 Nashville MOSUNNY 86 57 37 SW17G26 29.88F Atlanta MOSUNNY 81 58 45 SW8 30.02F $$ GAZ044-118-TXZ119-213-NCZ071-DCZ001-MDZ014-506-PAZ021-071-NJZ106- NYZ176-178-MAZ106-OHZ011-021-055-MIZ076-KYZ091-ILZ014-INZ047- MNZ060-ONZ431-262100- ...Gateway Observations for Savannah International... CITY SKY/WX TMP DP RH WIND PRES REMARKS Savannah Arpt MOSUNNY 86 52 30 W10 29.99F Atlanta MOSUNNY 81 58 45 SW8 30.02F Charlotte MOSUNNY 81 54 39 SW9 29.95F Dallas DFW PTSUNNY 94 74 52 S21 29.75S HX 104 Houston Bush PTSUNNY 89 73 59 S16G22 29.88F HX 97 Wash National PTSUNNY 75 55 49 NW16G25 29.77S Wash Dulles PTSUNNY 75 54 47 W17G30 29.78S Baltimore PTSUNNY 74 58 57 W17G31 29.75R Philadelphia PTSUNNY 75 54 47 W17G24 29.69R Newark PTSUNNY 76 56 49 NW12G18 29.62R Laguardia PTSUNNY 74 53 48 NW17 29.61R J F K PTSUNNY 76 56 49 NW13 29.62S Boston LGT RAIN 58 52 80 W12G21 29.58R Pittsburg CLOUDY 65 55 70 NW13 29.87S Akron PTSUNNY 63 54 72 NW9 29.88F Cleveland PTSUNNY 64 53 67 W9 29.90F Cincinnati MOSUNNY 77 57 50 SW12 29.88S Columbus MOSUNNY 74 55 52 W9 29.87F Detroit PTSUNNY 69 53 56 NW8 29.85F Chicago O`Hare CLOUDY 69 53 56 E12 29.81F Minneapolis PTSUNNY 76 55 48 SW9 29.73S Indianapolis PTSUNNY 76 59 55 S17 29.84R Toronto Canada LGT RAIN 63 55 77 NW10G20 29.75S $$

USA.gov is the U.S. government's official web portal to all federal, state and local government web resources and services.